Simultaneous Nadir Overpasses (SNOs) Predictions

Prediction of SNOs between METOP-B and NPP Satellite Orbit:

Table of predicted SNOs for the next 14.0 days since TLE Epoch: 8/9/2020
Index Date (METOP-B) Time (METOP-B) Lat,Lon (METOP-B) SZA (METOP-B ) Date (NPP) Time (NPP) Lat,Lon (NPP) SZA (NPP ) Distance(km) Time Diff (sec)
1 08/22/2020 14:11:24 73.45, -39.56 62.02 08/22/2020 14:10:17 73.50, -42.36 62.22 88.74 67
2 08/22/2020 15:02:07 -73.39, 127.62 118.03 08/22/2020 15:00:59 -73.39, 125.21 117.90 76.59 68
3 08/22/2020 15:52:51 73.18, -65.51 61.80 08/22/2020 15:51:40 73.15, -66.95 61.86 46.68 71
4 08/22/2020 16:43:35 -73.06, 101.57 118.30 08/22/2020 16:42:23 -73.09, 100.50 118.20 34.93 72
5 08/22/2020 17:34:19 72.85, -91.55 61.53 08/22/2020 17:33:04 72.85, -91.69 61.56 4.60 75
6 08/22/2020 18:25:01 -72.84, 75.75 118.47 08/22/2020 18:23:48 -72.84, 75.65 118.45 3.41 73
7 08/22/2020 19:15:41 72.83,-116.93 61.53 08/22/2020 19:14:33 72.81,-116.96 61.53 2.58 68
8 08/22/2020 20:06:23 -72.82, 50.37 118.47 08/22/2020 20:05:17 -72.80, 50.38 118.48 2.17 66
9 08/22/2020 20:57:03 72.80,-142.32 61.54 08/22/2020 20:56:03 72.81,-142.34 61.56 0.90 60
10 08/22/2020 21:47:45 -72.79, 24.98 118.47 08/22/2020 21:46:47 -72.80, 24.99 118.45 0.96 58
11 08/22/2020 22:38:24 72.78,-167.71 61.54 08/22/2020 22:37:32 72.81,-167.73 61.58 3.61 52
12 08/22/2020 23:29:05 -72.82, -0.30 118.42 08/22/2020 23:28:16 -72.80, -0.39 118.42 3.32 49
13 08/23/2020 00:19:46 72.76, 166.90 61.54 08/23/2020 00:19:01 72.77, 167.00 61.56 3.34 45
14 08/23/2020 01:10:27 -72.80, -25.69 118.42 08/23/2020 01:09:46 -72.81, -25.77 118.39 2.79 41
15 08/23/2020 02:01:07 72.79, 141.62 61.59 08/23/2020 02:00:31 72.77, 141.62 61.58 1.72 36
16 08/23/2020 02:51:49 -72.77, -51.08 118.41 08/23/2020 02:51:15 -72.76, -51.05 118.42 1.89 34
17 08/23/2020 03:42:29 72.76, 116.23 61.59 08/23/2020 03:42:01 72.77, 116.23 61.61 1.29 28
